Location: Fond Mahaut
(18.0707°N, 63.0465°W)
Time: 17:43:19
(UTC+00:00)

Cosmos 1741 Rocket - Pass Details

Date: 08 December 2019
Orbit: 762 x 782 km, 74.0° (Epoch: 28 January)

Event Time Altitude Azimuth Distance (km) Brightness Sun altitude
Rises 23:33:35 0° 192° (SSW) 3,245 7.6 -27.0°
Reaches altitude 10° 23:35:58 10° 192° (SSW) 2,316 6.8 -27.5°
Enters shadow 23:40:17 61° 190° (S) 871 4.3 -28.5°
